Year,Month,Day,Hour,Minute,Value (Times are PST for temperature in C)
2017,09,02,00,00,16.30
2017,09,02,00,01,16.30
2017,09,02,00,02,16.30
2017,09,02,00,03,16.40
2017,09,02,00,04,16.40
2017,09,02,00,05,16.40
2017,09,02,00,06,16.50
2017,09,02,00,07,16.50
2017,09,02,00,08,16.50
2017,09,02,00,09,16.50
2017,09,02,00,10,16.60
2017,09,02,00,11,16.60
2017,09,02,00,12,16.60
2017,09,02,00,13,16.60
2017,09,02,00,14,16.60
2017,09,02,00,15,16.60
2017,09,02,00,16,16.60
2017,09,02,00,17,16.60
2017,09,02,00,18,16.60
2017,09,02,00,19,16.60
2017,09,02,00,20,16.60
2017,09,02,00,21,16.60
2017,09,02,00,22,16.60
2017,09,02,00,23,16.60
2017,09,02,00,24,16.60
2017,09,02,00,25,16.60
2017,09,02,00,26,16.50
2017,09,02,00,27,16.50
2017,09,02,00,28,16.50
2017,09,02,00,29,16.40
2017,09,02,00,30,16.40
2017,09,02,00,31,16.40
2017,09,02,00,32,16.40
2017,09,02,00,33,16.40
2017,09,02,00,34,16.40
2017,09,02,00,35,16.40
2017,09,02,00,36,16.40
2017,09,02,00,37,16.50
2017,09,02,00,38,16.50
2017,09,02,00,39,16.50
2017,09,02,00,40,16.50
2017,09,02,00,41,16.50
2017,09,02,00,42,16.50
2017,09,02,00,43,16.60
2017,09,02,00,44,16.70
2017,09,02,00,45,16.70
2017,09,02,00,46,16.70
2017,09,02,00,47,16.70
2017,09,02,00,48,16.70
2017,09,02,00,49,16.60
2017,09,02,00,50,16.50
2017,09,02,00,51,16.50
2017,09,02,00,52,16.40
2017,09,02,00,53,16.40
2017,09,02,00,54,16.40
2017,09,02,00,55,16.40
2017,09,02,00,56,16.40
2017,09,02,00,57,16.40
2017,09,02,00,58,16.40
2017,09,02,00,59,16.40
2017,09,02,01,00,16.50
2017,09,02,01,01,16.50
2017,09,02,01,02,16.60
2017,09,02,01,03,16.60
2017,09,02,01,04,16.60
2017,09,02,01,05,16.60
2017,09,02,01,06,16.60
2017,09,02,01,07,16.60
2017,09,02,01,08,16.60
2017,09,02,01,09,16.60
2017,09,02,01,10,16.60
2017,09,02,01,11,16.60
2017,09,02,01,12,16.60
2017,09,02,01,13,16.50
2017,09,02,01,14,16.40
2017,09,02,01,15,16.40
2017,09,02,01,16,16.30
2017,09,02,01,17,16.30
2017,09,02,01,18,16.30
2017,09,02,01,19,16.30
2017,09,02,01,20,16.30
2017,09,02,01,21,16.30
2017,09,02,01,22,16.40
2017,09,02,01,23,16.40
2017,09,02,01,24,16.30
2017,09,02,01,25,16.20
2017,09,02,01,26,16.20
2017,09,02,01,27,16.10
2017,09,02,01,28,16.00
2017,09,02,01,29,16.00
2017,09,02,01,30,15.90
2017,09,02,01,31,15.90
2017,09,02,01,32,15.80
2017,09,02,01,33,15.80
2017,09,02,01,34,15.70
2017,09,02,01,35,15.70
2017,09,02,01,36,15.70
2017,09,02,01,37,15.70
2017,09,02,01,38,15.70
2017,09,02,01,39,15.70
2017,09,02,01,40,15.70
2017,09,02,01,41,15.70
2017,09,02,01,42,15.70
2017,09,02,01,43,15.80
2017,09,02,01,44,15.90
2017,09,02,01,45,16.10
2017,09,02,01,46,16.20
2017,09,02,01,47,16.40
2017,09,02,01,48,16.60
2017,09,02,01,49,16.70
2017,09,02,01,50,16.80
2017,09,02,01,51,16.80
2017,09,02,01,52,16.90
2017,09,02,01,53,16.90
2017,09,02,01,54,16.90
2017,09,02,01,55,16.90
2017,09,02,01,56,16.80
2017,09,02,01,57,16.80
2017,09,02,01,58,16.80
2017,09,02,01,59,16.70
2017,09,02,02,00,16.70
2017,09,02,02,01,16.60
2017,09,02,02,02,16.50
2017,09,02,02,03,16.40
2017,09,02,02,04,16.30
2017,09,02,02,05,16.20
2017,09,02,02,06,16.10
2017,09,02,02,07,16.00
2017,09,02,02,08,16.00
2017,09,02,02,09,15.90
2017,09,02,02,10,15.80
2017,09,02,02,11,15.70
2017,09,02,02,12,15.70
2017,09,02,02,13,15.60
2017,09,02,02,14,15.50
2017,09,02,02,15,15.50
2017,09,02,02,16,15.40
2017,09,02,02,17,15.30
2017,09,02,02,18,15.30
2017,09,02,02,19,15.20
2017,09,02,02,20,15.20
2017,09,02,02,21,15.10
2017,09,02,02,22,15.10
2017,09,02,02,23,15.00
2017,09,02,02,24,15.00
2017,09,02,02,25,14.90
2017,09,02,02,26,14.90
2017,09,02,02,27,14.80
2017,09,02,02,28,14.80
2017,09,02,02,29,14.80
2017,09,02,02,30,14.80
2017,09,02,02,31,14.80
2017,09,02,02,32,14.80
2017,09,02,02,33,14.80
2017,09,02,02,34,14.80
2017,09,02,02,35,14.80
2017,09,02,02,36,14.80
2017,09,02,02,37,14.80
2017,09,02,02,38,14.80
2017,09,02,02,39,14.80
2017,09,02,02,40,14.80
2017,09,02,02,41,14.80
2017,09,02,02,42,14.80
2017,09,02,02,43,14.80
2017,09,02,02,44,14.80
2017,09,02,02,45,14.80
2017,09,02,02,46,14.80
2017,09,02,02,47,14.80
2017,09,02,02,48,14.70
2017,09,02,02,49,14.70
2017,09,02,02,50,14.70
2017,09,02,02,51,14.70
2017,09,02,02,52,14.70
2017,09,02,02,53,14.70
2017,09,02,02,54,14.70
2017,09,02,02,55,14.70
2017,09,02,02,56,14.70
2017,09,02,02,57,14.70
2017,09,02,02,58,14.70
2017,09,02,02,59,14.60
2017,09,02,03,00,14.60
2017,09,02,03,01,14.60
2017,09,02,03,02,14.60
2017,09,02,03,03,14.60
2017,09,02,03,04,14.60
2017,09,02,03,05,14.60
2017,09,02,03,06,14.60
2017,09,02,03,07,14.60
2017,09,02,03,08,14.60
2017,09,02,03,09,14.60
2017,09,02,03,10,14.60
2017,09,02,03,11,14.60
2017,09,02,03,12,14.60
2017,09,02,03,13,14.60
2017,09,02,03,14,14.60
2017,09,02,03,15,14.60
2017,09,02,03,16,14.60
2017,09,02,03,17,14.60
2017,09,02,03,18,14.60
2017,09,02,03,19,14.60
2017,09,02,03,20,14.60
2017,09,02,03,21,14.60
2017,09,02,03,22,14.60
2017,09,02,03,23,14.60
2017,09,02,03,24,14.50
2017,09,02,03,25,14.50
2017,09,02,03,26,14.50
2017,09,02,03,27,14.40
2017,09,02,03,28,14.40
2017,09,02,03,29,14.40
2017,09,02,03,30,14.30
2017,09,02,03,31,14.30
2017,09,02,03,32,14.30
2017,09,02,03,33,14.30
2017,09,02,03,34,14.20
2017,09,02,03,35,14.20
2017,09,02,03,36,14.20
2017,09,02,03,37,14.20
2017,09,02,03,38,14.20
2017,09,02,03,39,14.10
2017,09,02,03,40,14.10
2017,09,02,03,41,14.10
2017,09,02,03,42,14.00
2017,09,02,03,43,14.00
2017,09,02,03,44,14.00
2017,09,02,03,45,13.90
2017,09,02,03,46,13.90
2017,09,02,03,47,13.90
2017,09,02,03,48,13.90
2017,09,02,03,49,13.90
2017,09,02,03,50,13.90
2017,09,02,03,51,13.90
2017,09,02,03,52,13.90
2017,09,02,03,53,13.80
2017,09,02,03,54,13.80
2017,09,02,03,55,13.80
2017,09,02,03,56,13.80
2017,09,02,03,57,13.80
2017,09,02,03,58,13.80
2017,09,02,03,59,13.70
2017,09,02,04,00,13.70
2017,09,02,04,01,13.70
2017,09,02,04,02,13.70
2017,09,02,04,03,13.70
2017,09,02,04,04,13.70
2017,09,02,04,05,13.70
2017,09,02,04,06,13.60
2017,09,02,04,07,13.60
2017,09,02,04,08,13.60
2017,09,02,04,09,13.60
2017,09,02,04,10,13.60
2017,09,02,04,11,13.60
2017,09,02,04,12,13.60
2017,09,02,04,13,13.60
2017,09,02,04,14,13.60
2017,09,02,04,15,13.60
2017,09,02,04,16,13.60
2017,09,02,04,17,13.50
2017,09,02,04,18,13.50
2017,09,02,04,19,13.50
2017,09,02,04,20,13.50
2017,09,02,04,21,13.50
2017,09,02,04,22,13.50
2017,09,02,04,23,13.50
2017,09,02,04,24,13.50
2017,09,02,04,25,13.60
2017,09,02,04,26,13.60
2017,09,02,04,27,13.60
2017,09,02,04,28,13.60
2017,09,02,04,29,13.70
2017,09,02,04,30,13.70
2017,09,02,04,31,13.70
2017,09,02,04,32,13.70
2017,09,02,04,33,13.70
2017,09,02,04,34,13.70
2017,09,02,04,35,13.70
2017,09,02,04,36,13.80
2017,09,02,04,37,13.80
2017,09,02,04,38,13.90
2017,09,02,04,39,13.90
2017,09,02,04,40,14.00
2017,09,02,04,41,14.00
2017,09,02,04,42,13.90
2017,09,02,04,43,13.90
2017,09,02,04,44,13.90
2017,09,02,04,45,13.90
2017,09,02,04,46,13.90
2017,09,02,04,47,13.90
2017,09,02,04,48,14.00
2017,09,02,04,49,14.00
2017,09,02,04,50,14.00
2017,09,02,04,51,14.00
2017,09,02,04,52,13.90
2017,09,02,04,53,13.90
2017,09,02,04,54,13.90
2017,09,02,04,55,13.80
2017,09,02,04,56,13.80
2017,09,02,04,57,13.80
2017,09,02,04,58,13.80
2017,09,02,04,59,13.80
2017,09,02,05,00,13.80
2017,09,02,05,01,13.80
2017,09,02,05,02,13.80
2017,09,02,05,03,13.80
2017,09,02,05,04,13.80
2017,09,02,05,05,13.80
2017,09,02,05,06,13.80
2017,09,02,05,07,13.80
2017,09,02,05,08,13.80
2017,09,02,05,09,13.70
2017,09,02,05,10,13.70
2017,09,02,05,11,13.70
2017,09,02,05,12,13.70
2017,09,02,05,13,13.70
2017,09,02,05,14,13.70
2017,09,02,05,15,13.70
2017,09,02,05,16,13.70
2017,09,02,05,17,13.60
2017,09,02,05,18,13.60
2017,09,02,05,19,13.60
2017,09,02,05,20,13.60
2017,09,02,05,21,13.60
2017,09,02,05,22,13.60
2017,09,02,05,23,13.60
2017,09,02,05,24,13.60
2017,09,02,05,25,13.60
2017,09,02,05,26,13.60
2017,09,02,05,27,13.60
2017,09,02,05,28,13.60
2017,09,02,05,29,13.60
2017,09,02,05,30,13.70
2017,09,02,05,31,13.70
2017,09,02,05,32,13.60
2017,09,02,05,33,13.60
2017,09,02,05,34,13.60
2017,09,02,05,35,13.60
2017,09,02,05,36,13.60
2017,09,02,05,37,13.70
2017,09,02,05,38,13.70
2017,09,02,05,39,13.60
2017,09,02,05,40,13.60
2017,09,02,05,41,13.60
2017,09,02,05,42,13.60
2017,09,02,05,43,13.60
2017,09,02,05,44,13.50
2017,09,02,05,45,13.50
2017,09,02,05,46,13.50
2017,09,02,05,47,13.50
2017,09,02,05,48,13.50
2017,09,02,05,49,13.50
2017,09,02,05,50,13.50
2017,09,02,05,51,13.40
2017,09,02,05,52,13.40
2017,09,02,05,53,13.40
2017,09,02,05,54,13.40
2017,09,02,05,55,13.30
2017,09,02,05,56,13.30
2017,09,02,05,57,13.30
2017,09,02,05,58,13.30
2017,09,02,05,59,13.30
2017,09,02,06,00,13.30
2017,09,02,06,01,13.20
2017,09,02,06,02,13.20
2017,09,02,06,03,13.20
2017,09,02,06,04,13.20
2017,09,02,06,05,13.20
2017,09,02,06,06,13.20
2017,09,02,06,07,13.20
2017,09,02,06,08,13.20
2017,09,02,06,09,13.20
2017,09,02,06,10,13.20
2017,09,02,06,11,13.20
2017,09,02,06,12,13.20
2017,09,02,06,13,13.20
2017,09,02,06,14,13.20
2017,09,02,06,15,13.20
2017,09,02,06,16,13.10
2017,09,02,06,17,13.10
2017,09,02,06,18,13.10
2017,09,02,06,19,13.10
2017,09,02,06,20,13.10
2017,09,02,06,21,13.10
2017,09,02,06,22,13.10
2017,09,02,06,23,13.10
2017,09,02,06,24,13.10
2017,09,02,06,25,13.10
2017,09,02,06,26,13.10
2017,09,02,06,27,13.10
2017,09,02,06,28,13.20
2017,09,02,06,29,13.20
2017,09,02,06,30,13.20
2017,09,02,06,31,13.20
2017,09,02,06,32,13.20
2017,09,02,06,33,13.20
2017,09,02,06,34,13.20
2017,09,02,06,35,13.20
2017,09,02,06,36,13.20
2017,09,02,06,37,13.20
2017,09,02,06,38,13.20
2017,09,02,06,39,13.20
2017,09,02,06,40,13.10
2017,09,02,06,41,13.10
2017,09,02,06,42,13.10
2017,09,02,06,43,13.10
2017,09,02,06,44,13.10
2017,09,02,06,45,13.10
2017,09,02,06,46,13.10
2017,09,02,06,47,13.10
2017,09,02,06,48,13.10
2017,09,02,06,49,13.10
2017,09,02,06,50,13.10
2017,09,02,06,51,13.10
2017,09,02,06,52,13.10
2017,09,02,06,53,13.10
2017,09,02,06,54,13.10
2017,09,02,06,55,13.10
2017,09,02,06,56,13.10
2017,09,02,06,57,13.10
2017,09,02,06,58,13.10
2017,09,02,06,59,13.10
2017,09,02,07,00,13.20
2017,09,02,07,01,13.20
2017,09,02,07,02,13.20
2017,09,02,07,03,13.20
2017,09,02,07,04,13.20
2017,09,02,07,05,13.20
2017,09,02,07,06,13.20
2017,09,02,07,07,13.20
2017,09,02,07,08,13.20
2017,09,02,07,09,13.20
2017,09,02,07,10,13.30
2017,09,02,07,11,13.30
2017,09,02,07,12,13.30
2017,09,02,07,13,13.30
2017,09,02,07,14,13.30
2017,09,02,07,15,13.30
2017,09,02,07,16,13.40
2017,09,02,07,17,13.40
2017,09,02,07,18,13.40
2017,09,02,07,19,13.40
2017,09,02,07,20,13.40
2017,09,02,07,21,13.40
2017,09,02,07,22,13.40
2017,09,02,07,23,13.50
2017,09,02,07,24,13.50
2017,09,02,07,25,13.60
2017,09,02,07,26,13.60
2017,09,02,07,27,13.70
2017,09,02,07,28,13.70
2017,09,02,07,29,13.70
2017,09,02,07,30,13.80
2017,09,02,07,31,13.80
2017,09,02,07,32,13.90
2017,09,02,07,33,13.90
2017,09,02,07,34,14.00
2017,09,02,07,35,14.00
2017,09,02,07,36,14.00
2017,09,02,07,37,14.10
2017,09,02,07,38,14.10
2017,09,02,07,39,14.10
2017,09,02,07,40,14.20
2017,09,02,07,41,14.20
2017,09,02,07,42,14.30
2017,09,02,07,43,14.30
2017,09,02,07,44,14.40
2017,09,02,07,45,14.50
2017,09,02,07,46,14.60
2017,09,02,07,47,14.70
2017,09,02,07,48,14.80
2017,09,02,07,49,14.90
2017,09,02,07,50,14.90
2017,09,02,07,51,15.00
2017,09,02,07,52,15.10
2017,09,02,07,53,15.10
2017,09,02,07,54,15.20
2017,09,02,07,55,15.20
2017,09,02,07,56,15.30
2017,09,02,07,57,15.40
2017,09,02,07,58,15.40
2017,09,02,07,59,15.50
2017,09,02,08,00,15.60
2017,09,02,08,01,15.70
2017,09,02,08,02,15.80
2017,09,02,08,03,15.90
2017,09,02,08,04,16.00
2017,09,02,08,05,16.00
2017,09,02,08,06,16.10
2017,09,02,08,07,16.20
2017,09,02,08,08,16.40
2017,09,02,08,09,16.60
2017,09,02,08,10,16.70
2017,09,02,08,11,16.80
2017,09,02,08,12,17.00
2017,09,02,08,13,17.10
2017,09,02,08,14,17.30
2017,09,02,08,15,17.40
2017,09,02,08,16,17.50
2017,09,02,08,17,17.70
2017,09,02,08,18,17.80
2017,09,02,08,19,17.90
2017,09,02,08,20,18.00
2017,09,02,08,21,18.10
2017,09,02,08,22,18.30
2017,09,02,08,23,18.40
2017,09,02,08,24,18.50
2017,09,02,08,25,18.60
2017,09,02,08,26,18.80
2017,09,02,08,27,19.00
2017,09,02,08,28,19.10
2017,09,02,08,29,19.30
2017,09,02,08,30,19.50
2017,09,02,08,31,19.60
2017,09,02,08,32,19.70
2017,09,02,08,33,19.90
2017,09,02,08,34,20.00
2017,09,02,08,35,20.10
2017,09,02,08,36,20.20
2017,09,02,08,37,20.30
2017,09,02,08,38,20.40
2017,09,02,08,39,20.50
2017,09,02,08,40,20.60
2017,09,02,08,41,20.50
2017,09,02,08,42,20.50
2017,09,02,08,43,20.40
2017,09,02,08,44,20.30
2017,09,02,08,45,20.20
2017,09,02,08,46,20.10
2017,09,02,08,47,20.10
2017,09,02,08,48,20.00
2017,09,02,08,49,19.90
2017,09,02,08,50,19.90
2017,09,02,08,51,19.80
2017,09,02,08,52,19.80
2017,09,02,08,53,19.80
2017,09,02,08,54,19.70
2017,09,02,08,55,19.70
2017,09,02,08,56,19.70
2017,09,02,08,57,19.70
2017,09,02,08,58,19.70
2017,09,02,08,59,19.70
2017,09,02,09,00,19.70
2017,09,02,09,01,19.70
2017,09,02,09,02,19.80
2017,09,02,09,03,19.80
2017,09,02,09,04,19.80
2017,09,02,09,05,19.80
2017,09,02,09,06,19.90
2017,09,02,09,07,19.90
2017,09,02,09,08,19.90
2017,09,02,09,09,20.00
2017,09,02,09,10,20.00
2017,09,02,09,11,20.10
2017,09,02,09,12,20.10
2017,09,02,09,13,20.10
2017,09,02,09,14,20.20
2017,09,02,09,15,20.20
2017,09,02,09,16,20.30
2017,09,02,09,17,20.30
2017,09,02,09,18,20.40
2017,09,02,09,19,20.40
2017,09,02,09,20,20.40
2017,09,02,09,21,20.40
2017,09,02,09,22,20.40
2017,09,02,09,23,20.40
2017,09,02,09,24,20.40
2017,09,02,09,25,20.40
2017,09,02,09,26,20.50
2017,09,02,09,27,20.50
2017,09,02,09,28,20.50
2017,09,02,09,29,20.50
2017,09,02,09,30,20.50
2017,09,02,09,31,20.50
2017,09,02,09,32,20.50
2017,09,02,09,33,20.50
2017,09,02,09,34,20.50
2017,09,02,09,35,20.50
2017,09,02,09,36,20.50
2017,09,02,09,37,20.50
2017,09,02,09,38,20.60
2017,09,02,09,39,20.60
2017,09,02,09,40,20.70
2017,09,02,09,41,20.70
2017,09,02,09,42,20.80
2017,09,02,09,43,20.80
2017,09,02,09,44,20.90
2017,09,02,09,45,20.90
2017,09,02,09,46,20.90
2017,09,02,09,47,20.90
2017,09,02,09,48,20.90
2017,09,02,09,49,20.90
2017,09,02,09,50,20.90
2017,09,02,09,51,20.90
2017,09,02,09,52,20.90
2017,09,02,09,53,20.90
2017,09,02,09,54,20.90
2017,09,02,09,55,20.90
2017,09,02,09,56,20.90
2017,09,02,09,57,20.90
2017,09,02,09,58,20.90
2017,09,02,09,59,20.90
2017,09,02,10,00,20.90
2017,09,02,10,01,20.90
2017,09,02,10,02,20.90
2017,09,02,10,03,20.90
2017,09,02,10,04,20.90
2017,09,02,10,05,20.80
2017,09,02,10,06,20.70
2017,09,02,10,07,20.70
2017,09,02,10,08,20.60
2017,09,02,10,09,20.60
2017,09,02,10,10,20.60
2017,09,02,10,11,20.60
2017,09,02,10,12,20.60
2017,09,02,10,13,20.50
2017,09,02,10,14,20.50
2017,09,02,10,15,20.60
2017,09,02,10,16,20.60
2017,09,02,10,17,20.60
2017,09,02,10,18,20.60
2017,09,02,10,19,20.70
2017,09,02,10,20,20.70
2017,09,02,10,21,20.60
2017,09,02,10,22,20.60
2017,09,02,10,23,20.50
2017,09,02,10,24,20.50
2017,09,02,10,25,20.40
2017,09,02,10,26,20.40
2017,09,02,10,27,20.30
2017,09,02,10,28,20.30
2017,09,02,10,29,20.30
2017,09,02,10,30,20.20
2017,09,02,10,31,20.20
2017,09,02,10,32,20.20
2017,09,02,10,33,20.20
2017,09,02,10,34,20.30
2017,09,02,10,35,20.30
2017,09,02,10,36,20.30
2017,09,02,10,37,20.30
2017,09,02,10,38,20.40
2017,09,02,10,39,20.40
2017,09,02,10,40,20.50
2017,09,02,10,41,20.70
2017,09,02,10,42,20.70
2017,09,02,10,43,20.80
2017,09,02,10,44,20.90
2017,09,02,10,45,20.90
2017,09,02,10,46,21.00
2017,09,02,10,47,21.00
2017,09,02,10,48,21.10
2017,09,02,10,49,21.10
2017,09,02,10,50,21.10
2017,09,02,10,51,21.20
2017,09,02,10,52,21.20
2017,09,02,10,53,21.30
2017,09,02,10,54,21.30
2017,09,02,10,55,21.20
2017,09,02,10,56,21.20
2017,09,02,10,57,21.20
2017,09,02,10,58,21.20
2017,09,02,10,59,21.30
2017,09,02,11,00,21.30
2017,09,02,11,01,21.40
2017,09,02,11,02,21.30
2017,09,02,11,03,21.40
2017,09,02,11,04,21.40
2017,09,02,11,05,21.50
2017,09,02,11,06,21.50
2017,09,02,11,07,21.60
2017,09,02,11,08,21.70
2017,09,02,11,09,21.70
2017,09,02,11,10,21.80
2017,09,02,11,11,21.80
2017,09,02,11,12,21.80
2017,09,02,11,13,21.80
2017,09,02,11,14,21.80
2017,09,02,11,15,21.80
2017,09,02,11,16,21.90
2017,09,02,11,17,21.90
2017,09,02,11,18,21.90
2017,09,02,11,19,21.90
2017,09,02,11,20,21.90
2017,09,02,11,21,21.90
2017,09,02,11,22,21.90
2017,09,02,11,23,21.90
2017,09,02,11,24,21.90
2017,09,02,11,25,22.00
2017,09,02,11,26,22.00
2017,09,02,11,27,22.00
2017,09,02,11,28,22.00
2017,09,02,11,29,22.00
2017,09,02,11,30,22.00
2017,09,02,11,31,22.00
2017,09,02,11,32,22.00
2017,09,02,11,33,22.00
2017,09,02,11,34,22.10
2017,09,02,11,35,22.10
2017,09,02,11,36,22.10
2017,09,02,11,37,22.20
2017,09,02,11,38,22.10
2017,09,02,11,39,22.20
2017,09,02,11,40,22.20
2017,09,02,11,41,22.20
2017,09,02,11,42,22.30
2017,09,02,11,43,22.30
2017,09,02,11,44,22.40
2017,09,02,11,45,22.40
2017,09,02,11,46,22.40
2017,09,02,11,47,22.40
2017,09,02,11,48,22.40
2017,09,02,11,49,22.50
2017,09,02,11,50,22.50
2017,09,02,11,51,22.60
2017,09,02,11,52,22.60
2017,09,02,11,53,22.70
2017,09,02,11,54,22.70
2017,09,02,11,55,22.80
2017,09,02,11,56,22.90
2017,09,02,11,57,23.00
2017,09,02,11,58,23.00
2017,09,02,11,59,23.10
2017,09,02,12,00,23.10
2017,09,02,12,01,23.10
2017,09,02,12,02,23.00
2017,09,02,12,03,23.00
2017,09,02,12,04,23.10
2017,09,02,12,05,23.00
2017,09,02,12,06,23.00
2017,09,02,12,07,22.90
2017,09,02,12,08,22.90
2017,09,02,12,09,22.90
2017,09,02,12,10,22.90
2017,09,02,12,11,22.90
2017,09,02,12,12,22.80
2017,09,02,12,13,22.80
2017,09,02,12,14,22.80
2017,09,02,12,15,22.80
2017,09,02,12,16,22.80
2017,09,02,12,17,22.90
2017,09,02,12,18,23.00
2017,09,02,12,19,23.10
2017,09,02,12,20,23.20
2017,09,02,12,21,23.30
2017,09,02,12,22,23.40
2017,09,02,12,23,23.50
2017,09,02,12,24,23.50
2017,09,02,12,25,23.60
2017,09,02,12,26,23.70
2017,09,02,12,27,23.70
2017,09,02,12,28,23.80
2017,09,02,12,29,23.80
2017,09,02,12,30,23.80
2017,09,02,12,31,23.80
2017,09,02,12,32,23.80
2017,09,02,12,33,23.90
2017,09,02,12,34,23.90
2017,09,02,12,35,24.00
2017,09,02,12,36,24.10
2017,09,02,12,37,24.20
2017,09,02,12,38,24.30
2017,09,02,12,39,24.30
2017,09,02,12,40,24.40
2017,09,02,12,41,24.40
2017,09,02,12,42,24.50
2017,09,02,12,43,24.50
2017,09,02,12,44,24.50
2017,09,02,12,45,24.50
2017,09,02,12,46,24.50
2017,09,02,12,47,24.50
2017,09,02,12,48,24.40
2017,09,02,12,49,24.40
2017,09,02,12,50,24.40
2017,09,02,12,51,24.40
2017,09,02,12,52,24.40
2017,09,02,12,53,24.40
2017,09,02,12,54,24.30
2017,09,02,12,55,24.30
2017,09,02,12,56,24.30
2017,09,02,12,57,24.30
2017,09,02,12,58,24.40
2017,09,02,12,59,24.30
2017,09,02,13,00,24.30
2017,09,02,13,01,24.30
2017,09,02,13,02,24.30
2017,09,02,13,03,24.40
2017,09,02,13,04,24.40
2017,09,02,13,05,24.50
2017,09,02,13,06,24.50
2017,09,02,13,07,24.60
2017,09,02,13,08,24.60
2017,09,02,13,09,24.70
2017,09,02,13,10,24.70
2017,09,02,13,11,24.80
2017,09,02,13,12,24.80
2017,09,02,13,13,24.90
2017,09,02,13,14,25.00
2017,09,02,13,15,25.00
2017,09,02,13,16,24.90
2017,09,02,13,17,24.90
2017,09,02,13,18,24.80
2017,09,02,13,19,24.90
2017,09,02,13,20,24.90
2017,09,02,13,21,25.00
2017,09,02,13,22,25.00
2017,09,02,13,23,25.10
2017,09,02,13,24,25.20
2017,09,02,13,25,25.30
2017,09,02,13,26,25.40
2017,09,02,13,27,25.40
2017,09,02,13,28,25.50
2017,09,02,13,29,25.50
2017,09,02,13,30,25.50
2017,09,02,13,31,25.40
2017,09,02,13,32,25.40
2017,09,02,13,33,25.40
2017,09,02,13,34,25.40
2017,09,02,13,35,25.40
2017,09,02,13,36,25.40
2017,09,02,13,37,25.40
2017,09,02,13,38,25.40
2017,09,02,13,39,25.40
2017,09,02,13,40,25.50
2017,09,02,13,41,25.50
2017,09,02,13,42,25.50
2017,09,02,13,43,25.50
2017,09,02,13,44,25.50
2017,09,02,13,45,25.60
2017,09,02,13,46,25.60
2017,09,02,13,47,25.60
2017,09,02,13,48,25.60
2017,09,02,13,49,25.60
2017,09,02,13,50,25.70
2017,09,02,13,51,25.80
2017,09,02,13,52,25.80
2017,09,02,13,53,25.80
2017,09,02,13,54,25.90
2017,09,02,13,55,25.90
2017,09,02,13,56,25.90
2017,09,02,13,57,25.90
2017,09,02,13,58,25.90
2017,09,02,13,59,25.90
2017,09,02,14,00,26.00
2017,09,02,14,01,26.00
2017,09,02,14,02,26.10
2017,09,02,14,03,26.10
2017,09,02,14,04,26.10
2017,09,02,14,05,26.10
2017,09,02,14,06,26.00
2017,09,02,14,07,26.00
2017,09,02,14,08,26.00
2017,09,02,14,09,25.90
2017,09,02,14,10,25.90
2017,09,02,14,11,25.90
2017,09,02,14,12,25.90
2017,09,02,14,13,25.90
2017,09,02,14,14,25.90
2017,09,02,14,15,26.00
2017,09,02,14,16,26.00
2017,09,02,14,17,26.00
2017,09,02,14,18,25.90
2017,09,02,14,19,26.00
2017,09,02,14,20,26.00
2017,09,02,14,21,26.00
2017,09,02,14,22,25.90
2017,09,02,14,23,25.90
2017,09,02,14,24,25.90
2017,09,02,14,25,25.80
2017,09,02,14,26,25.80
2017,09,02,14,27,25.80
2017,09,02,14,28,25.80
2017,09,02,14,29,25.90
2017,09,02,14,30,25.90
2017,09,02,14,31,25.90
2017,09,02,14,32,25.90
2017,09,02,14,33,25.90
2017,09,02,14,34,25.90
2017,09,02,14,35,26.00
2017,09,02,14,36,25.90
2017,09,02,14,37,25.90
2017,09,02,14,38,25.90
2017,09,02,14,39,25.90
2017,09,02,14,40,25.90
2017,09,02,14,41,25.90
2017,09,02,14,42,25.90
2017,09,02,14,43,25.80
2017,09,02,14,44,25.80
2017,09,02,14,45,25.70
2017,09,02,14,46,25.60
2017,09,02,14,47,25.40
2017,09,02,14,48,25.30
2017,09,02,14,49,25.20
2017,09,02,14,50,25.20
2017,09,02,14,51,25.20
2017,09,02,14,52,25.30
2017,09,02,14,53,25.40
2017,09,02,14,54,25.30
2017,09,02,14,55,25.20
2017,09,02,14,56,25.10
2017,09,02,14,57,25.10
2017,09,02,14,58,25.20
2017,09,02,14,59,25.20
2017,09,02,15,00,25.30
2017,09,02,15,01,25.30
2017,09,02,15,02,25.30
2017,09,02,15,03,25.30
2017,09,02,15,04,25.30
2017,09,02,15,05,25.30
2017,09,02,15,06,25.20
2017,09,02,15,07,25.20
2017,09,02,15,08,25.20
2017,09,02,15,09,25.20
2017,09,02,15,10,25.30
2017,09,02,15,11,25.30
2017,09,02,15,12,25.30
2017,09,02,15,13,25.30
2017,09,02,15,14,25.20
2017,09,02,15,15,25.20
2017,09,02,15,16,25.10
2017,09,02,15,17,25.00
2017,09,02,15,18,25.00
2017,09,02,15,19,25.00
2017,09,02,15,20,25.00
2017,09,02,15,21,25.10
2017,09,02,15,22,25.10
2017,09,02,15,23,25.30
2017,09,02,15,24,25.50
2017,09,02,15,25,25.70
2017,09,02,15,26,25.80
2017,09,02,15,27,25.80
2017,09,02,15,28,25.80
2017,09,02,15,29,25.60
2017,09,02,15,30,25.50
2017,09,02,15,31,25.30
2017,09,02,15,32,25.20
2017,09,02,15,33,25.10
2017,09,02,15,34,25.10
2017,09,02,15,35,25.10
2017,09,02,15,36,25.10
2017,09,02,15,37,25.10
2017,09,02,15,38,25.10
2017,09,02,15,39,25.00
2017,09,02,15,40,25.10
2017,09,02,15,41,25.10
2017,09,02,15,42,25.20
2017,09,02,15,43,25.30
2017,09,02,15,44,25.50
2017,09,02,15,45,25.60
2017,09,02,15,46,25.80
2017,09,02,15,47,25.90
2017,09,02,15,48,26.00
2017,09,02,15,49,26.10
2017,09,02,15,50,26.20
2017,09,02,15,51,26.20
2017,09,02,15,52,26.30
2017,09,02,15,53,26.40
2017,09,02,15,54,26.50
2017,09,02,15,55,26.50
2017,09,02,15,56,26.60
2017,09,02,15,57,26.60
2017,09,02,15,58,26.70
2017,09,02,15,59,26.70
2017,09,02,16,00,26.80
2017,09,02,16,01,26.80
2017,09,02,16,02,26.80
2017,09,02,16,03,26.80
2017,09,02,16,04,26.80
2017,09,02,16,05,26.80
2017,09,02,16,06,26.70
2017,09,02,16,07,26.70
2017,09,02,16,08,26.70
2017,09,02,16,09,26.60
2017,09,02,16,10,26.50
2017,09,02,16,11,26.50
2017,09,02,16,12,26.50
2017,09,02,16,13,26.50
2017,09,02,16,14,26.50
2017,09,02,16,15,26.50
2017,09,02,16,16,26.60
2017,09,02,16,17,26.70
2017,09,02,16,18,26.70
2017,09,02,16,19,26.80
2017,09,02,16,20,26.80
2017,09,02,16,21,26.80
2017,09,02,16,22,26.80
2017,09,02,16,23,26.80
2017,09,02,16,24,26.80
2017,09,02,16,25,26.80
2017,09,02,16,26,26.80
2017,09,02,16,27,26.70
2017,09,02,16,28,26.70
2017,09,02,16,29,26.60
2017,09,02,16,30,26.60
2017,09,02,16,31,26.60
2017,09,02,16,32,26.70
2017,09,02,16,33,26.70
2017,09,02,16,34,26.60
2017,09,02,16,35,26.60
2017,09,02,16,36,26.70
2017,09,02,16,37,26.70
2017,09,02,16,38,26.70
2017,09,02,16,39,26.70
2017,09,02,16,40,26.80
2017,09,02,16,41,26.80
2017,09,02,16,42,26.80
2017,09,02,16,43,26.80
2017,09,02,16,44,26.80
2017,09,02,16,45,26.90
2017,09,02,16,46,26.90
2017,09,02,16,47,26.90
2017,09,02,16,48,26.90
2017,09,02,16,49,26.90
2017,09,02,16,50,26.90
2017,09,02,16,51,26.90
2017,09,02,16,52,26.90
2017,09,02,16,53,27.00
2017,09,02,16,54,27.00
2017,09,02,16,55,27.10
2017,09,02,16,56,27.10
2017,09,02,16,57,27.20
2017,09,02,16,58,27.30
2017,09,02,16,59,27.30
2017,09,02,17,00,27.30
2017,09,02,17,01,27.40
2017,09,02,17,02,27.40
2017,09,02,17,03,27.40
2017,09,02,17,04,27.40
2017,09,02,17,05,27.50
2017,09,02,17,06,27.50
2017,09,02,17,07,27.60
2017,09,02,17,08,27.60
2017,09,02,17,09,27.70
2017,09,02,17,10,27.80
2017,09,02,17,11,27.80
2017,09,02,17,12,27.80
2017,09,02,17,13,27.80
2017,09,02,17,14,27.80
2017,09,02,17,15,27.80
2017,09,02,17,16,27.90
2017,09,02,17,17,27.90
2017,09,02,17,18,27.90
2017,09,02,17,19,27.90